Starlink 35658

operational
NORAD ID: 66126 Int'l Des: 2025-237 Owner: SPXS Country: US Constellation: starlink
LEOCIRCULAR

关于 Starlink 35658

正在加载描述...

实时位置

正在加载3D地球...

即将过境

高度历史

Altitude vs Time

uPlot chart will show altitude changes over time

两行轨道根数

1 66126C 25237N 25298.72201389 -.01171500 00000+0 -19411-2 0 2984
2 66126 53.1548 319.2591 0000714 76.2889 112.8059 16.03495530 14
Epoch: Oct 25, 2025 • Age: 148 hours

当前状态

高度 309.3 km
速度 7.72 km/s
星下点 -53.14°S, 91.91°E
发射日期 Oct 22, 2025
运行时间 8 days
类型 internet

技术详情

分类 Payload
质量 575.00 kg
干质量 530.00 kg
总质量 575.00 kg
长度 0.30 m
直径 4.10 m
跨度 29.00 m
形状 Box + pan
制造商 SPXS
平台类型 Starlink V2MO
阶段状态 In Orbit
所有者/国家 SPXS/US

大型星座

Loading constellations...